Tracking 17264 objects as of 30-August-2015
HD Live streaming from Space Station

SL-8 DEB

Track SL-8 DEB now!
10-day predictions
SL-8 DEB is classified as:


NORAD ID: 21250
Int'l Code: 1991-009BH
Perigee: 1,493.6 km
Apogee: 1,718.3 km
Inclination: 74.1 °
Period: 118.2 minutes
Semi major axis: 7976 km
RCS: 0.1024 m2 (medium)
Launch date: February 12, 1991
Source: Commonwealth of Independent States (former USSR) (CIS)

Note: This is SATELLITE DEBRIS
Your satellite tracking list
Your tracking list is empty





NASA's NSSDC Master Catalog

Two Line Element Set (TLE):
1 21250U 91009BH  15240.19948330  .00000046  00000-0  57587-3 0  9993
2 21250 074.0620 152.3192 0140819 160.6844 008.2709 12.18565714 88862

Source of the keplerian elements: AFSPC

N2YO: 422